Location: Lalanga
(4.5882°N, 32.9072°E)
Time: 04:10:13
(UTC+00:00)

GPS 2-14 Rocket1 - Pass Details

Date: 24 January 2020
Orbit: 477 x 542 km, 20.7° (Epoch: 16 February)

Event Time Altitude Azimuth Distance (km) Brightness Sun altitude
Rises 16:47:32 0° 277° (W) 2,550 7.5 -12.6°
Reaches altitude 10° 16:50:08 10° 294° (WNW) 1,681 6.0 -13.2°
Maximum altitude 16:53:07 21° 344° (NNW) 1,168 4.5 -13.9°
Enters shadow 16:55:12 14° 23° (NNE) 1,453 4.6 -14.4°
